AUL538 UWKD-ULLI

Flight info

Callsign AUL538
Flight time 2h 2m
Altitude 38000
Route APTAR1H APTAR L158 IRGOS T613 DOGOB M864 IBROT T784 ROKUR P164 PINOK N50 GENPA GENPA1A
Aircraft B737/M-SDE2E3FGHIRWXY/LB1

Departure

Time 2026-05-07 17:48
Airport Kazan International Airport (UWKD)

Arrival

Time 2026-05-07 19:50
Airport Pulkovo Airport (ULLI)
Time Latitude Longitude Altitude Speed Heading
2026-05-07 16:51 55.60737 49.29890 411 ft 0 kts 34°
2026-05-07 17:19 55.60734 49.29887 415 ft 0 kts 34°
2026-05-07 17:28 55.60728 49.29880 408 ft 2 kts 34°
2026-05-07 17:28 55.60714 49.29863 412 ft 2 kts 33°
2026-05-07 17:28 55.60700 49.29848 407 ft 2 kts 22°
2026-05-07 17:28 55.60684 49.29843 413 ft 2 kts 355°
2026-05-07 17:29 55.60669 49.29855 406 ft 2 kts 313°
2026-05-07 17:29 55.60659 49.29878 405 ft 2 kts 301°
2026-05-07 17:29 55.60647 49.29894 409 ft 2 kts
2026-05-07 17:29 55.60630 49.29889 405 ft 2 kts 17°
2026-05-07 17:30 55.60615 49.29879 410 ft 2 kts 25°
2026-05-07 17:30 55.60603 49.29861 409 ft 1 kts 40°
2026-05-07 17:30 55.60602 49.29859 409 ft 0 kts 38°
2026-05-07 17:36 55.60648 49.29880 407 ft 11 kts 343°
2026-05-07 17:37 55.60698 49.29777 409 ft 11 kts 305°
2026-05-07 17:37 55.60741 49.29668 411 ft 11 kts 302°
2026-05-07 17:37 55.60780 49.29558 407 ft 10 kts 298°
2026-05-07 17:37 55.60793 49.29457 412 ft 7 kts 260°
2026-05-07 17:38 55.60777 49.29385 413 ft 6 kts 231°
2026-05-07 17:38 55.60741 49.29340 415 ft 6 kts 211°
2026-05-07 17:38 55.60694 49.29288 411 ft 10 kts 218°
2026-05-07 17:38 55.60640 49.29217 415 ft 10 kts 217°
2026-05-07 17:39 55.60592 49.29137 412 ft 9 kts 236°
2026-05-07 17:39 55.60576 49.29021 415 ft 11 kts 272°
2026-05-07 17:39 55.60582 49.28876 413 ft 12 kts 275°
2026-05-07 17:39 55.60589 49.28733 415 ft 12 kts 274°
2026-05-07 17:40 55.60604 49.28595 408 ft 11 kts 292°
2026-05-07 17:40 55.60646 49.28479 410 ft 11 kts 305°
2026-05-07 17:40 55.60690 49.28365 411 ft 12 kts 304°
2026-05-07 17:40 55.60750 49.28208 410 ft 17 kts 304°
2026-05-07 17:41 55.60817 49.28034 415 ft 17 kts 304°
2026-05-07 17:41 55.60882 49.27867 412 ft 16 kts 304°
2026-05-07 17:41 55.60945 49.27707 412 ft 16 kts 305°
2026-05-07 17:41 55.61005 49.27551 409 ft 15 kts 304°
2026-05-07 17:42 55.61071 49.27382 413 ft 20 kts 304°
2026-05-07 17:42 55.61152 49.27171 408 ft 21 kts 304°
2026-05-07 17:42 55.61214 49.27000 412 ft 7 kts 291°
2026-05-07 17:42 55.61209 49.26917 415 ft 7 kts 232°
2026-05-07 17:43 55.61169 49.26866 415 ft 0 kts 214°
2026-05-07 17:45 55.61135 49.26825 417 ft 18 kts 214°
2026-05-07 17:46 55.61029 49.26834 414 ft 18 kts 123°
2026-05-07 17:46 55.61002 49.26903 410 ft 0 kts 123°
2026-05-07 17:47 55.60845 49.27314 409 ft 85 kts 124°
2026-05-07 17:47 55.60364 49.28574 434 ft 158 kts 123°
2026-05-07 17:48 55.59700 49.30382 1054 ft 180 kts 122°
2026-05-07 17:48 55.58995 49.32254 2173 ft 182 kts 125°
2026-05-07 17:48 55.58221 49.34204 2849 ft 204 kts 125°
2026-05-07 17:48 55.57377 49.36325 3520 ft 216 kts 124°
2026-05-07 17:49 55.56503 49.38528 3911 ft 221 kts 124°
2026-05-07 17:49 55.55633 49.40727 3965 ft 220 kts 124°
2026-05-07 17:49 55.54566 49.42648 4008 ft 225 kts 153°
2026-05-07 17:49 55.52984 49.43195 4243 ft 251 kts 188°
2026-05-07 17:50 55.51345 49.41873 4801 ft 270 kts 226°
2026-05-07 17:50 55.50341 49.39079 5785 ft 272 kts 244°
2026-05-07 17:50 55.49253 49.36311 6795 ft 279 kts 227°
2026-05-07 17:50 55.47621 49.34408 7589 ft 287 kts 204°
2026-05-07 17:51 55.45748 49.33166 7923 ft 289 kts 201°
2026-05-07 17:51 55.43849 49.31926 7953 ft 292 kts 202°
2026-05-07 17:51 55.42049 49.30352 7947 ft 288 kts 221°
2026-05-07 17:51 55.40888 49.27575 7974 ft 281 kts 252°
2026-05-07 17:52 55.40552 49.24238 7979 ft 277 kts 274°
2026-05-07 17:52 55.40734 49.20878 7981 ft 276 kts 279°
2026-05-07 17:52 55.40982 49.17536 7975 ft 274 kts 279°
2026-05-07 17:52 55.41229 49.14251 7956 ft 271 kts 279°
2026-05-07 17:53 55.41470 49.10935 7967 ft 275 kts 279°
2026-05-07 17:53 55.41706 49.07563 7980 ft 279 kts 278°
2026-05-07 17:53 55.41937 49.04168 7975 ft 280 kts 278°
2026-05-07 17:53 55.42167 49.00746 7986 ft 291 kts 278°
2026-05-07 17:54 55.42422 48.96968 7999 ft 327 kts 278°
2026-05-07 17:54 55.42689 48.92935 7978 ft 335 kts 278°
2026-05-07 17:54 55.42955 48.88856 7971 ft 334 kts 278°
2026-05-07 17:54 55.43217 48.84796 7968 ft 333 kts 278°
2026-05-07 17:55 55.43479 48.80745 7968 ft 333 kts 278°
2026-05-07 17:55 55.43803 48.76715 7966 ft 333 kts 284°
2026-05-07 17:55 55.44412 48.72734 8544 ft 338 kts 288°
2026-05-07 17:55 55.45089 48.68768 9644 ft 338 kts 288°
2026-05-07 17:56 55.45767 48.64844 10582 ft 341 kts 288°
2026-05-07 17:56 55.46455 48.60825 11471 ft 345 kts 288°
2026-05-07 17:56 55.47142 48.56756 12361 ft 348 kts 287°
2026-05-07 17:56 55.47829 48.52635 13255 ft 353 kts 287°
2026-05-07 17:57 55.48518 48.48459 14111 ft 356 kts 287°
2026-05-07 17:57 55.48983 48.45616 14636 ft 359 kts 286°
2026-05-07 17:57 55.49916 48.39887 15247 ft 378 kts 286°
2026-05-07 17:57 55.50649 48.35363 15753 ft 388 kts 286°
2026-05-07 17:58 55.51392 48.30759 16459 ft 391 kts 286°
2026-05-07 17:58 55.52137 48.26119 17205 ft 394 kts 286°
2026-05-07 17:58 55.52885 48.21451 17923 ft 397 kts 285°
2026-05-07 17:58 55.53639 48.16732 18561 ft 402 kts 285°
2026-05-07 17:59 55.54399 48.11965 19147 ft 405 kts 285°
2026-05-07 17:59 55.55163 48.07158 19723 ft 408 kts 285°
2026-05-07 17:59 55.55932 48.02307 19955 ft 409 kts 285°
2026-05-07 17:59 55.56698 47.97459 19979 ft 411 kts 285°
2026-05-07 18:00 55.57465 47.92593 19974 ft 411 kts 285°
2026-05-07 18:00 55.58229 47.87732 19977 ft 411 kts 285°
2026-05-07 18:00 55.58993 47.82854 20026 ft 414 kts 285°
2026-05-07 18:00 55.59764 47.77918 20498 ft 418 kts 285°
2026-05-07 18:01 55.60535 47.72967 21231 ft 417 kts 285°
2026-05-07 18:01 55.61304 47.68013 21843 ft 419 kts 285°
2026-05-07 18:01 55.62078 47.63016 22356 ft 423 kts 285°
2026-05-07 18:01 55.62856 47.57974 22868 ft 427 kts 285°
2026-05-07 18:02 55.64425 47.47762 23859 ft 432 kts 285°
2026-05-07 18:02 55.65213 47.42604 24301 ft 435 kts 285°
2026-05-07 18:02 55.66003 47.37421 24721 ft 437 kts 285°
2026-05-07 18:03 55.66797 47.32201 25130 ft 440 kts 285°
2026-05-07 18:03 55.67592 47.26950 25526 ft 443 kts 285°
2026-05-07 18:03 55.68390 47.21663 25913 ft 445 kts 284°
2026-05-07 18:03 55.69189 47.16352 26297 ft 447 kts 284°
2026-05-07 18:04 55.69990 47.11013 26672 ft 450 kts 284°
2026-05-07 18:04 55.70792 47.05645 27037 ft 452 kts 284°
2026-05-07 18:04 55.71586 47.00317 27384 ft 454 kts 284°
2026-05-07 18:04 55.72403 46.94814 27729 ft 456 kts 284°
2026-05-07 18:05 55.73201 46.89427 28075 ft 458 kts 284°
2026-05-07 18:05 55.74005 46.83972 28565 ft 456 kts 284°
2026-05-07 18:05 55.74802 46.78548 29118 ft 453 kts 284°
2026-05-07 18:05 55.75606 46.73066 29679 ft 451 kts 284°
2026-05-07 18:06 55.76392 46.67678 30148 ft 450 kts 284°
2026-05-07 18:06 55.77164 46.62374 30535 ft 450 kts 284°
2026-05-07 18:06 55.77945 46.56992 30961 ft 448 kts 284°
2026-05-07 18:06 55.78719 46.51640 31407 ft 447 kts 284°
2026-05-07 18:07 55.79468 46.46291 31831 ft 445 kts 281°
2026-05-07 18:07 55.80017 46.40889 32225 ft 444 kts 279°
2026-05-07 18:07 55.80492 46.35479 32624 ft 443 kts 278°
2026-05-07 18:07 55.80939 46.30080 33031 ft 441 kts 278°
2026-05-07 18:08 55.81381 46.24688 33426 ft 440 kts 278°
2026-05-07 18:08 55.81823 46.19318 33798 ft 439 kts 278°
2026-05-07 18:08 55.82269 46.13952 34139 ft 438 kts 278°
2026-05-07 18:08 55.82717 46.08609 34415 ft 437 kts 278°
2026-05-07 18:09 55.83168 46.03250 34677 ft 438 kts 278°
2026-05-07 18:09 55.83618 45.97904 34941 ft 437 kts 278°
2026-05-07 18:09 55.84068 45.92547 35193 ft 438 kts 278°
2026-05-07 18:09 55.84514 45.87201 35448 ft 438 kts 278°
2026-05-07 18:10 55.84959 45.81842 35707 ft 437 kts 278°
2026-05-07 18:10 55.85402 45.76488 35965 ft 437 kts 278°
2026-05-07 18:10 55.85841 45.71140 36201 ft 437 kts 278°
2026-05-07 18:10 55.86131 45.67592 36360 ft 437 kts 278°
2026-05-07 18:11 55.86566 45.62239 36618 ft 436 kts 278°
2026-05-07 18:11 55.86998 45.56899 36866 ft 436 kts 278°
2026-05-07 18:11 55.87428 45.51548 37099 ft 436 kts 278°
2026-05-07 18:11 55.87854 45.46214 37368 ft 435 kts 277°
2026-05-07 18:12 55.88278 45.40884 37609 ft 435 kts 277°
2026-05-07 18:12 55.88699 45.35553 37816 ft 435 kts 277°
2026-05-07 18:12 55.89119 45.30212 37944 ft 437 kts 277°
2026-05-07 18:13 55.89958 45.19452 37934 ft 438 kts 277°
2026-05-07 18:13 55.90782 45.08748 37932 ft 433 kts 277°
2026-05-07 18:14 55.91589 44.98149 37932 ft 430 kts 277°
2026-05-07 18:14 55.92380 44.87603 37938 ft 428 kts 277°
2026-05-07 18:15 55.93162 44.77073 37924 ft 427 kts 277°
2026-05-07 18:15 55.93931 44.66597 37924 ft 426 kts 277°
2026-05-07 18:16 55.94690 44.56141 37923 ft 424 kts 277°
2026-05-07 18:16 55.95439 44.45704 37929 ft 426 kts 277°
2026-05-07 18:17 55.96188 44.35168 37934 ft 435 kts 277°
2026-05-07 18:17 55.96939 44.24445 37905 ft 435 kts 277°
2026-05-07 18:18 55.97677 44.13765 37912 ft 433 kts 276°
2026-05-07 18:18 55.98403 44.03119 37901 ft 431 kts 276°
2026-05-07 18:19 55.99116 43.92521 37905 ft 430 kts 276°
2026-05-07 18:19 55.99821 43.81910 37900 ft 430 kts 276°
2026-05-07 18:20 56.00516 43.71304 37901 ft 429 kts 276°
2026-05-07 18:20 56.01201 43.60706 37895 ft 430 kts 276°
2026-05-07 18:21 56.01879 43.50090 37900 ft 430 kts 276°
2026-05-07 18:21 56.02550 43.39445 37897 ft 431 kts 276°
2026-05-07 18:22 56.03068 43.28787 37902 ft 431 kts 272°
2026-05-07 18:22 56.03213 43.18491 37902 ft 431 kts 271°
2026-05-07 18:23 56.03332 43.07152 37903 ft 431 kts 271°
2026-05-07 18:23 56.03472 42.96419 37904 ft 431 kts 271°
2026-05-07 18:24 56.03617 42.85763 37897 ft 432 kts 271°
2026-05-07 18:24 56.03755 42.75029 37899 ft 432 kts 271°
2026-05-07 18:25 56.03883 42.64301 37898 ft 431 kts 271°
2026-05-07 18:25 56.04738 42.53722 37911 ft 432 kts 287°
2026-05-07 18:26 56.07296 42.44018 37905 ft 434 kts 301°
2026-05-07 18:26 56.10658 42.35028 37905 ft 434 kts 302°
2026-05-07 18:27 56.14006 42.26031 37900 ft 434 kts 301°
2026-05-07 18:27 56.17312 42.16956 37900 ft 434 kts 301°
2026-05-07 18:28 56.20674 42.07954 37904 ft 434 kts 304°
2026-05-07 18:28 56.24354 41.99330 37900 ft 435 kts 306°
2026-05-07 18:29 56.28077 41.90783 37894 ft 434 kts 306°
2026-05-07 18:29 56.31769 41.82183 37906 ft 433 kts 305°
2026-05-07 18:30 56.35428 41.73563 37916 ft 433 kts 305°
2026-05-07 18:30 56.39074 41.64926 37914 ft 432 kts 305°
2026-05-07 18:31 56.42713 41.56276 37898 ft 432 kts 305°
2026-05-07 18:31 56.46342 41.47620 37911 ft 432 kts 305°
2026-05-07 18:32 56.49959 41.38963 37921 ft 431 kts 304°
2026-05-07 18:32 56.53568 41.30294 37909 ft 431 kts 304°
2026-05-07 18:33 56.57167 41.21621 37909 ft 430 kts 304°
2026-05-07 18:33 56.60714 41.12886 37911 ft 429 kts 300°
2026-05-07 18:34 56.63163 41.03134 37940 ft 424 kts 286°
2026-05-07 18:34 56.64890 40.92900 37924 ft 424 kts 285°
2026-05-07 18:35 56.66596 40.82673 37925 ft 427 kts 285°
2026-05-07 18:35 56.68341 40.72341 37910 ft 427 kts 285°
2026-05-07 18:36 56.70089 40.62034 37918 ft 426 kts 285°
2026-05-07 18:36 56.71824 40.51757 37919 ft 424 kts 285°
2026-05-07 18:37 56.73548 40.41483 37919 ft 424 kts 285°
2026-05-07 18:37 56.75259 40.31220 37917 ft 423 kts 285°
2026-05-07 18:38 56.76961 40.20956 37922 ft 423 kts 285°
2026-05-07 18:38 56.78653 40.10687 37924 ft 423 kts 285°
2026-05-07 18:39 56.80338 40.00409 37921 ft 423 kts 285°
2026-05-07 18:39 56.82016 39.90113 37919 ft 423 kts 285°
2026-05-07 18:40 56.83692 39.79811 37919 ft 423 kts 285°
2026-05-07 18:40 56.85366 39.69494 37920 ft 424 kts 284°
2026-05-07 18:41 56.87033 39.59153 37918 ft 424 kts 284°
2026-05-07 18:41 56.88682 39.48867 37924 ft 424 kts 284°
2026-05-07 18:42 56.90333 39.38501 37925 ft 424 kts 284°
2026-05-07 18:42 56.91974 39.28126 37927 ft 424 kts 284°
2026-05-07 18:43 56.93608 39.17743 37925 ft 424 kts 284°
2026-05-07 18:43 56.94968 39.09043 37922 ft 424 kts 284°
2026-05-07 18:44 56.96572 38.98732 37923 ft 423 kts 284°
2026-05-07 18:44 56.98176 38.88355 37921 ft 423 kts 284°
2026-05-07 18:45 56.99780 38.77915 37917 ft 422 kts 284°
2026-05-07 18:45 57.01354 38.67606 37919 ft 422 kts 283°
2026-05-07 18:46 57.02928 38.57227 37916 ft 422 kts 283°
2026-05-07 18:46 57.04494 38.46840 37912 ft 422 kts 283°
2026-05-07 18:47 57.06052 38.36438 37912 ft 422 kts 283°
2026-05-07 18:47 57.07600 38.26034 37916 ft 422 kts 283°
2026-05-07 18:48 57.09142 38.15612 37911 ft 423 kts 283°
2026-05-07 18:48 57.10676 38.05168 37908 ft 423 kts 283°
2026-05-07 18:49 57.12202 37.94718 37911 ft 423 kts 283°
2026-05-07 18:49 57.13719 37.84257 37910 ft 423 kts 283°
2026-05-07 18:50 57.15229 37.73789 37912 ft 423 kts 283°
2026-05-07 18:50 57.16767 37.63332 37903 ft 423 kts 287°
2026-05-07 18:51 57.18897 37.53212 37907 ft 424 kts 289°
2026-05-07 18:51 57.21096 37.43118 37914 ft 424 kts 289°
2026-05-07 18:52 57.23261 37.33055 37919 ft 416 kts 289°
2026-05-07 18:52 57.24298 37.28204 37921 ft 397 kts 289°
2026-05-07 18:52 57.25285 37.23558 37908 ft 384 kts 289°
2026-05-07 18:53 57.27214 37.14405 37901 ft 380 kts 288°
2026-05-07 18:53 57.29123 37.05298 37916 ft 381 kts 288°
2026-05-07 18:54 57.31032 36.96154 37925 ft 381 kts 288°
2026-05-07 18:54 57.32940 36.86983 37936 ft 382 kts 288°
2026-05-07 18:55 57.34843 36.77798 37929 ft 383 kts 288°
2026-05-07 18:55 57.36744 36.68579 37915 ft 384 kts 288°
2026-05-07 18:56 57.38671 36.59179 37942 ft 396 kts 288°
2026-05-07 18:56 57.40652 36.49478 37950 ft 408 kts 288°
2026-05-07 18:57 57.42679 36.39510 37950 ft 418 kts 288°
2026-05-07 18:57 57.44743 36.29307 37957 ft 424 kts 288°
2026-05-07 18:58 57.46806 36.19065 37943 ft 424 kts 288°
2026-05-07 18:58 57.48847 36.08877 37948 ft 423 kts 288°
2026-05-07 18:59 57.50902 35.98649 37945 ft 422 kts 288°
2026-05-07 18:59 57.52953 35.88447 37946 ft 420 kts 288°
2026-05-07 19:00 57.54988 35.78264 37950 ft 419 kts 288°
2026-05-07 19:00 57.57007 35.68100 37954 ft 418 kts 288°
2026-05-07 19:01 57.59013 35.57950 37951 ft 417 kts 288°
2026-05-07 19:01 57.61019 35.47815 37956 ft 416 kts 288°
2026-05-07 19:02 57.63087 35.37733 37958 ft 416 kts 288°
2026-05-07 19:02 57.65156 35.27648 37962 ft 415 kts 288°
2026-05-07 19:03 57.67203 35.17564 37968 ft 415 kts 288°
2026-05-07 19:03 57.69240 35.07472 37952 ft 415 kts 288°
2026-05-07 19:04 57.71552 34.97579 37964 ft 418 kts 297°
2026-05-07 19:04 57.75093 34.88862 37974 ft 423 kts 307°
2026-05-07 19:05 57.79016 34.80620 37971 ft 424 kts 307°
2026-05-07 19:05 57.82901 34.72398 37963 ft 424 kts 307°
2026-05-07 19:06 57.86785 34.64074 37966 ft 424 kts 306°
2026-05-07 19:06 57.92595 34.51522 37961 ft 424 kts 306°
2026-05-07 19:07 57.96460 34.43134 37969 ft 424 kts 306°
2026-05-07 19:07 58.00322 34.34723 37971 ft 424 kts 306°
2026-05-07 19:08 58.04180 34.26295 37976 ft 424 kts 306°
2026-05-07 19:08 58.08032 34.17853 37980 ft 424 kts 306°
2026-05-07 19:09 58.11879 34.09400 37985 ft 424 kts 306°
2026-05-07 19:09 58.15722 34.00925 37989 ft 424 kts 306°
2026-05-07 19:10 58.19560 33.92428 37986 ft 424 kts 306°
2026-05-07 19:10 58.23389 33.83921 37997 ft 424 kts 305°
2026-05-07 19:11 58.27213 33.75394 38000 ft 424 kts 305°
2026-05-07 19:11 58.31030 33.66852 37997 ft 424 kts 305°
2026-05-07 19:12 58.34835 33.58305 38001 ft 423 kts 305°
2026-05-07 19:12 58.38610 33.49794 38010 ft 423 kts 305°
2026-05-07 19:13 58.42405 33.41206 38012 ft 423 kts 305°
2026-05-07 19:13 58.46192 33.32605 38009 ft 423 kts 304°
2026-05-07 19:14 58.49973 33.23988 38014 ft 423 kts 304°
2026-05-07 19:14 58.53748 33.15353 38022 ft 423 kts 304°
2026-05-07 19:15 58.57520 33.06688 38021 ft 424 kts 304°
2026-05-07 19:15 58.61289 32.97997 38029 ft 424 kts 304°
2026-05-07 19:16 58.65055 32.89278 38024 ft 424 kts 304°
2026-05-07 19:16 58.68818 32.80537 38026 ft 425 kts 304°
2026-05-07 19:17 58.72577 32.71770 38031 ft 425 kts 304°
2026-05-07 19:17 58.76335 32.62973 38032 ft 425 kts 304°
2026-05-07 19:18 58.80088 32.54155 38035 ft 426 kts 303°
2026-05-07 19:18 58.83838 32.45311 38033 ft 426 kts 303°
2026-05-07 19:19 58.85728 32.40838 37481 ft 433 kts 303°
2026-05-07 19:19 58.87620 32.36355 36915 ft 428 kts 303°
2026-05-07 19:19 58.89500 32.31899 36239 ft 426 kts 302°
2026-05-07 19:19 58.91363 32.27470 35482 ft 425 kts 302°
2026-05-07 19:20 58.93224 32.23036 34759 ft 423 kts 301°
2026-05-07 19:20 58.95071 32.18627 33884 ft 423 kts 301°
2026-05-07 19:20 58.96919 32.14201 32996 ft 422 kts 301°
2026-05-07 19:20 58.98768 32.09768 31999 ft 423 kts 301°
2026-05-07 19:21 59.00614 32.05331 31056 ft 423 kts 301°
2026-05-07 19:21 59.02462 32.00882 30085 ft 424 kts 301°
2026-05-07 19:21 59.04316 31.96410 28898 ft 426 kts 301°
2026-05-07 19:21 59.06174 31.91923 27827 ft 426 kts 301°
2026-05-07 19:22 59.07989 31.87545 27098 ft 418 kts 301°
2026-05-07 19:22 59.09824 31.83105 26295 ft 413 kts 301°
2026-05-07 19:22 59.11532 31.78782 25750 ft 402 kts 298°
2026-05-07 19:22 59.13103 31.74368 25312 ft 396 kts 297°
2026-05-07 19:23 59.14639 31.69825 24879 ft 406 kts 296°
2026-05-07 19:23 59.16183 31.65204 24427 ft 408 kts 297°
2026-05-07 19:23 59.17730 31.60605 23974 ft 404 kts 297°
2026-05-07 19:23 59.19278 31.56034 23498 ft 401 kts 297°
2026-05-07 19:24 59.20817 31.51509 22991 ft 399 kts 297°
2026-05-07 19:24 59.22349 31.47013 22508 ft 396 kts 297°
2026-05-07 19:24 59.23866 31.42559 22071 ft 393 kts 298°
2026-05-07 19:24 59.25374 31.38126 21624 ft 391 kts 298°
2026-05-07 19:25 59.26875 31.33705 21193 ft 389 kts 298°
2026-05-07 19:25 59.28369 31.29293 20756 ft 388 kts 298°
2026-05-07 19:25 59.29856 31.24895 20328 ft 387 kts 298°
2026-05-07 19:25 59.31339 31.20498 19900 ft 387 kts 298°
2026-05-07 19:26 59.32818 31.16109 19472 ft 386 kts 298°
2026-05-07 19:26 59.34292 31.11725 19052 ft 384 kts 298°
2026-05-07 19:26 59.35759 31.07358 18618 ft 383 kts 299°
2026-05-07 19:26 59.37218 31.03006 18174 ft 381 kts 299°
2026-05-07 19:27 59.38670 30.98664 17696 ft 379 kts 299°
2026-05-07 19:27 59.40108 30.94354 17249 ft 376 kts 299°
2026-05-07 19:27 59.41516 30.90125 16828 ft 374 kts 299°
2026-05-07 19:27 59.42935 30.85852 16404 ft 372 kts 300°
2026-05-07 19:28 59.44343 30.81604 15998 ft 371 kts 300°
2026-05-07 19:28 59.45747 30.77363 15583 ft 370 kts 300°
2026-05-07 19:28 59.47145 30.73132 15174 ft 369 kts 300°
2026-05-07 19:28 59.48540 30.68901 14769 ft 368 kts 300°
2026-05-07 19:29 59.49931 30.64676 14363 ft 368 kts 301°
2026-05-07 19:29 59.51323 30.60447 13956 ft 367 kts 301°
2026-05-07 19:29 59.52705 30.56235 13508 ft 366 kts 301°
2026-05-07 19:29 59.54083 30.52023 13068 ft 364 kts 301°
2026-05-07 19:30 59.55150 30.47531 12655 ft 361 kts 287°
2026-05-07 19:30 59.55858 30.42811 12265 ft 358 kts 285°
2026-05-07 19:30 59.56538 30.38102 11853 ft 356 kts 285°
2026-05-07 19:30 59.57209 30.33470 11448 ft 346 kts 286°
2026-05-07 19:31 59.57864 30.28991 11062 ft 335 kts 286°
2026-05-07 19:31 59.58506 30.24645 10692 ft 325 kts 286°
2026-05-07 19:31 59.58923 30.21831 10463 ft 319 kts 287°
2026-05-07 19:31 59.59540 30.17680 10114 ft 311 kts 287°
2026-05-07 19:32 59.60138 30.13660 10007 ft 296 kts 287°
2026-05-07 19:32 59.60702 30.09866 9982 ft 280 kts 287°
2026-05-07 19:32 59.61235 30.06267 9883 ft 268 kts 287°
2026-05-07 19:32 59.61754 30.02767 9555 ft 264 kts 287°
2026-05-07 19:33 59.62268 29.99289 9150 ft 264 kts 287°
2026-05-07 19:33 59.62782 29.95808 8779 ft 263 kts 288°
2026-05-07 19:33 59.63292 29.92350 8405 ft 262 kts 288°
2026-05-07 19:33 59.63800 29.88891 8034 ft 262 kts 288°
2026-05-07 19:34 59.64307 29.85446 7667 ft 261 kts 288°
2026-05-07 19:34 59.64810 29.82003 7302 ft 260 kts 289°
2026-05-07 19:34 59.65311 29.78569 6957 ft 260 kts 289°
2026-05-07 19:34 59.65811 29.75138 6614 ft 259 kts 289°
2026-05-07 19:35 59.66311 29.71706 6203 ft 260 kts 289°
2026-05-07 19:35 59.66808 29.68281 5874 ft 258 kts 289°
2026-05-07 19:35 59.67299 29.64883 5565 ft 255 kts 289°
2026-05-07 19:35 59.67785 29.61520 5268 ft 253 kts 289°
2026-05-07 19:36 59.68349 29.58291 5086 ft 242 kts 303°
2026-05-07 19:36 59.69320 29.55753 5091 ft 222 kts 312°
2026-05-07 19:36 59.70250 29.53464 5068 ft 204 kts 312°
2026-05-07 19:36 59.71092 29.51368 5050 ft 185 kts 312°
2026-05-07 19:37 59.71850 29.49474 5044 ft 169 kts 312°
2026-05-07 19:37 59.72576 29.47689 5069 ft 165 kts 317°
2026-05-07 19:37 59.73540 29.46614 5100 ft 160 kts 345°
2026-05-07 19:37 59.74617 29.45847 5085 ft 167 kts 342°
2026-05-07 19:38 59.75691 29.45025 5072 ft 164 kts 341°
2026-05-07 19:38 59.76744 29.44227 5058 ft 161 kts 342°
2026-05-07 19:38 59.77788 29.43442 5076 ft 161 kts 342°
2026-05-07 19:38 59.78831 29.42663 5085 ft 163 kts 342°
2026-05-07 19:39 59.79898 29.41866 5090 ft 165 kts 342°
2026-05-07 19:39 59.80987 29.41215 5047 ft 162 kts
2026-05-07 19:39 59.81943 29.42118 4776 ft 156 kts 51°
2026-05-07 19:39 59.82365 29.44115 4354 ft 163 kts 84°
2026-05-07 19:40 59.82188 29.46286 4253 ft 159 kts 98°
2026-05-07 19:40 59.81982 29.48526 4134 ft 166 kts 97°
2026-05-07 19:40 59.81777 29.50788 4042 ft 167 kts 97°
2026-05-07 19:40 59.81569 29.53045 3951 ft 166 kts 97°
2026-05-07 19:41 59.81359 29.55290 3870 ft 165 kts 97°
2026-05-07 19:41 59.81148 29.57531 3784 ft 165 kts 98°
2026-05-07 19:41 59.80936 29.59761 3708 ft 164 kts 98°
2026-05-07 19:41 59.80724 29.61977 3638 ft 163 kts 98°
2026-05-07 19:42 59.80510 29.64194 3568 ft 164 kts 98°
2026-05-07 19:42 59.80294 29.66421 3490 ft 165 kts 98°
2026-05-07 19:42 59.80075 29.68674 3416 ft 166 kts 98°
2026-05-07 19:42 59.79855 29.70926 3332 ft 166 kts 98°
2026-05-07 19:43 59.79635 29.73167 3253 ft 165 kts 98°
2026-05-07 19:43 59.79433 29.75336 3148 ft 155 kts 92°
2026-05-07 19:43 59.79754 29.77249 3124 ft 147 kts 50°
2026-05-07 19:43 59.80284 29.79045 3040 ft 154 kts 64°
2026-05-07 19:44 59.80748 29.80877 3008 ft 143 kts 60°
2026-05-07 19:44 59.81197 29.82538 2924 ft 132 kts 60°
2026-05-07 19:44 59.81634 29.84131 2849 ft 132 kts 60°
2026-05-07 19:44 59.82076 29.85736 2789 ft 133 kts 60°
2026-05-07 19:45 59.82522 29.87350 2720 ft 133 kts 60°
2026-05-07 19:45 59.82970 29.88970 2632 ft 136 kts 60°
2026-05-07 19:45 59.83424 29.90607 2522 ft 133 kts 60°
2026-05-07 19:45 59.83824 29.92240 2490 ft 132 kts 75°
2026-05-07 19:46 59.83743 29.94073 2490 ft 137 kts 98°
2026-05-07 19:46 59.83599 29.95951 2365 ft 136 kts 98°
2026-05-07 19:46 59.83448 29.97790 2254 ft 133 kts 98°
2026-05-07 19:46 59.83265 29.99599 2163 ft 134 kts 101°
2026-05-07 19:47 59.83032 30.01398 2048 ft 134 kts 104°
2026-05-07 19:47 59.82775 30.03189 2004 ft 135 kts 104°
2026-05-07 19:47 59.82515 30.04952 1881 ft 135 kts 105°
2026-05-07 19:47 59.82249 30.06731 1702 ft 134 kts 105°
2026-05-07 19:48 59.81984 30.08494 1516 ft 133 kts 105°
2026-05-07 19:48 59.81722 30.10243 1334 ft 132 kts 105°
2026-05-07 19:48 59.81459 30.12003 1135 ft 133 kts 105°
2026-05-07 19:48 59.81193 30.13765 950 ft 135 kts 106°
2026-05-07 19:49 59.80931 30.15531 790 ft 132 kts 105°
2026-05-07 19:49 59.80678 30.17292 614 ft 132 kts 105°
2026-05-07 19:49 59.80419 30.19042 427 ft 132 kts 106°
2026-05-07 19:49 59.80161 30.20771 249 ft 129 kts 105°
2026-05-07 19:50 59.79903 30.22452 112 ft 125 kts 107°
2026-05-07 19:50 59.79685 30.23906 84 ft 90 kts 107°
2026-05-07 19:50 59.79567 30.24679 87 ft 41 kts 105°
2026-05-07 19:50 59.79500 30.25154 86 ft 33 kts 105°
2026-05-07 19:51 59.79494 30.25581 86 ft 30 kts 77°
2026-05-07 19:51 59.79519 30.25768 87 ft 4 kts 75°
2026-05-07 19:51 59.79519 30.25769 87 ft 0 kts 75°
2026-05-07 19:54 59.79521 30.25783 89 ft 3 kts 76°
2026-05-07 19:54 59.79534 30.25887 87 ft 11 kts 76°
2026-05-07 19:54 59.79584 30.25995 85 ft 12 kts 16°
2026-05-07 19:54 59.79659 30.26050 84 ft 11 kts 28°
2026-05-07 19:55 59.79731 30.26107 84 ft 11 kts 17°
2026-05-07 19:55 59.79808 30.26152 83 ft 12 kts 16°
2026-05-07 19:55 59.79864 30.26221 85 ft 7 kts 80°
2026-05-07 19:55 59.79855 30.26293 85 ft 3 kts 107°
2026-05-07 19:56 59.79849 30.26333 83 ft 3 kts 106°
2026-05-07 19:56 59.79848 30.26340 83 ft 0 kts 106°
2026-05-07 19:56 59.79847 30.26343 83 ft 0 kts 107°